Weather in Shepparton

Australia     36°22′52″S   145°24′03″E
temp.,
°C
wind,
m/s
gust,
m/s
humid.,
%
clouds,
%
prec.,
mm/h
press.,
hPa
HPBL,
m
27 november, sat
sat2723:00+12sse51073100 0.0 1018338
02:00+10sse36760 0.0 1018125
05:00+9sse34820 0.0 101966
08:00+13sse22630 0.0 1020308
11:00+19ene01440 0.0 10211247
14:00+22wsw22350 0.0 10191830
17:00+24ene123448 0.0 10172268
20:00+20ne224448 0.0 101823
28 november, sun
sun2823:00+14e37580 0.0 1020141
02:00+12e23690 0.0 102153
05:00+10e37760 0.0 1021150
08:00+14e33650 0.0 1023338
11:00+20ne11500 0.0 10221030
14:00+25sse11350 0.0 10191866
17:00+26sse11300 0.0 10172122
20:00+21n33410 0.0 101727
29 november, mon
mon2923:00+17s12490 0.0 101811
02:00+15ene33590 0.0 101846
05:00+13ene36760 0.0 1019118
08:00+16ene45650 0.0 1020342
11:00+22ne33440 0.0 10191118
14:00+27ne22311 0.0 10162412
17:00+27ene32274 0.0 10142785
20:00+22ne35400 0.0 101459
30 november, tue
tue3023:00+19ne33440 0.0 101423
02:00+16ene34560 0.0 101450
05:00+15e34640 0.0 101548
08:00+19ene34540 0.0 1016234
11:00+26ne33350 0.0 10151561
14:00+29ene33250 0.0 10122715
17:00+30ene33241 0.0 10102715
20:00+24e22360 0.0 101011
1 december, wed
wed123:00+21e334064 0.0 101232
02:00+19e45541 0.0 101275
05:00+18ene496635 0.0 1012188
08:00+20ene5668100 0.0 1013361
11:00+27ne4349100 0.0 10121138
14:00+30ene323537 0.0 10112443
17:00+31ene64300 0.0 10072705
20:00+26s134995 0.1 101053